Regional Weather Roundup
Issued by NWS Binghamton, NY

Home | Current Version | Previous Version | Text Only | Print | Product List | Glossary On
Versions: 1 2 3 4 5 6 7 8 9 10 11 12 13 14 15 16 17 18 19 20 21 22 23 24 25 26 27
000
ASUS41 KBGM 031310
RWRBGM

REGIONAL WEATHER ROUNDUP
NATIONAL WEATHER SERVICE BINGHAMTON NY
800 AM EST SAT DEC 03 2016

Note: "fair" indicates few or no clouds below 12,000 feet with no
significant weather and/or obstructions to visibility.

* = Station(s) that does not report precipitation, such as rain,
snow, etc, also no thunder or fog.

NYZ009-015>018-022>025-036-037-044>046-055>057-062-031400
...Central New York...

CITY           SKY/WX    TMP DP  RH WIND       PRES   REMARKS
Binghamton     CLOUDY    30  27  88 NW9       30.02S WCI  22
Cortland       CLOUDY    32  30  93 W6G16     30.06R WCI  26
Dansville      CLOUDY    37  28  70 NW15G23   30.13R WCI  28
Elmira         CLOUDY    38  28  67 NW10G16   30.09R WCI  31
Seneca Falls   CLOUDY    37  30  75 NW13      30.11R WCI  29
Ithaca         CLOUDY    34  28  79 NW22G31   30.08R WCI  22
Hamilton       CLOUDY    32  28  86 NW10      30.02R WCI  24
Monticello     CLOUDY    34  25  69 NW17G26   29.99R WCI  23
Norwich        MOCLDY    34  28  80 CALM      30.04R
Oneonta        LGT SNOW  30  30 100 W6        29.98R WCI  24
Penn Yan       CLOUDY    36  29  75 W9G17     30.10R WCI  29
Rome           CLOUDY    34  33  96 W9        30.05R WCI  27
Sidney         CLOUDY    32  28  86 W8        30.04R WCI  25
Syracuse       CLOUDY    35  28  75 W10       30.07R WCI  27
$$

PAZ038>040-043-044-047-048-072-031400
...Northeast Pennsylvania...

CITY           SKY/WX    TMP DP  RH WIND       PRES   REMARKS
Hazleton       CLOUDY    36  30  80 W10G21    30.06R WCI  28
Scranton       CLOUDY    38  29  70 NW9       30.05R WCI  31
$$
&&
KEY
WCI = Wind Chill Index
VSB = Visibility
HX  = Heat Index
$$




USA.gov is the U.S. government's official web portal to all federal, state and local government web resources and services.